Location: Nelson
(38.9945°N, 93.0321°W)
Time: 14:43:21
(UTC+00:00)

ACS3 Solar Sail - Pass Details

Date: 24 June 2024
Orbit: 993 x 1023 km, 97.4° (Epoch: 18 July)

Event Time Altitude Azimuth Distance (km) Brightness Sun altitude
Exits shadow 03:06:27 19° 136° (SE) 2,195 6.0 -13.7°
Maximum altitude 03:10:42 46° 71° (ENE) 1,311 5.3 -14.2°
Drops below altitude 10° 03:16:35 10° 1° (N) 2,765 7.9 -15.0°
Sets 03:19:09 0° 355° (N) 3,717 8.8 -15.3°
